Regional Weather Roundup
Issued by NWS

Home | Current Version | Previous Version | Text Only | Print | Product List | Glossary Off
Versions: 1 2 3 4 5 6 7 8 9 10 11 12 13 14 15 16 17 18 19 20 21 22 23 24 25 26 27 28 29 30 31 32 33 34 35 36 37 38 39 40 41 42 43 44 45 46 47 48 49 50

000
ASUS43 KDTX 280510
RWRMI
MICHIGAN HOURLY REGIONAL WEATHER ROUNDUP
NATIONAL WEATHER SERVICE DETROIT/PONTIAC MI
100 AM EDT THU AUG 28 2014

NOTE: "FAIR" INDICATES FEW OR NO CLOUDS BELOW 12,000 FEET WITH NO
SIGNIFICANT WEATHER AND/OR OBSTRUCTION TO VISIBILITY.

MIZ047>049-052>055-059>063-066>070-074>076-081>083-280600-
SOUTHEAST LOWER MICHIGAN

CITY           SKY/WX    TMP DP  RH WIND       PRES   REMARKS
ADRIAN         CLEAR     61  59  93 W3        30.12S
ALMA           MOCLDY    59  51  73 N7        30.16S
ANN ARBOR      MOCLDY    62  58  86 E3        30.11S
BAD AXE        MOCLDY    57  53  87 CALM      30.16R
DETROIT CITY   PTCLDY    66  54  65 NE8       30.13S
DETROIT        MOCLDY    64  58  80 NE7       30.12S
FLINT          CLOUDY    64  55  72 NE12      30.15R
GROSSE ILE     PTCLDY    63  57  82 E6        30.11S
HILLSDALE      CLEAR     58  58 100 CALM      30.13S
HOWELL         CLOUDY    62  59  88 N5        30.13S

CITY           SKY/WX    TMP DP  RH WIND       PRES   REMARKS
JACKSON        CLEAR     60  58  92 CALM      30.12S
LAMBERTVILLE   PTCLDY    63  59  88 NE3       30.12S
LANSING        CLEAR     61  52  72 N5        30.15S
LAPEER         NOT AVBL
MASON          CLEAR     61  56  83 N6        30.14S
MONROE         PTCLDY    63  59  88 NE5       30.10S
MT. CLEMENS    CLOUDY    61  54  76 NE7       30.12S
PONTIAC        MOCLDY    61  54  77 NE6       30.13S
PORT HOPE        N/A     61  52  72 CALM      30.13S
PORT HURON     MOCLDY    57  55  94 N3        30.14S
TRI CITIES     MOCLDY    60  52  74 N8        30.17R
YPSILANTI      CLOUDY    67  60  78 E7        30.13R
$$
MIZ043>046-050>051-056>058-064>065-071>073-077>080-280600-
SOUTHWEST LOWER MICHIGAN

CITY           SKY/WX    TMP DP  RH WIND       PRES   REMARKS
BATTLE CREEK   CLEAR     63  56  78 NE8       30.14S
BENTON HARBOR  CLEAR     60  56  86 NE3       30.13F
BIG RAPIDS     CLEAR     52  52  99 CALM      30.17S
COLDWATER      PTCLDY    64  61  91 CALM      30.13S
HOLLAND        CLEAR     63  54  72 NE3       30.15S
GRAND RAPIDS   CLEAR     60  58  92 NE5       30.15S
KALAMAZOO      CLEAR     63  56  78 N5        30.14S
MARSHALL       CLEAR     62  57  85 N3        30.13R
MUSKEGON       CLEAR     58  53  84 CALM      30.16S
$$
MIZ016>042-280600-
NORTHERN LOWER MICHIGAN

CITY           SKY/WX    TMP DP  RH WIND       PRES   REMARKS
ALPENA         CLEAR     51  46  83 W3        30.17R
BEAVER ISLAND  CLEAR     46  45  96 CALM      30.18S
BELLAIRE         N/A     48  47  95 CALM      30.18R FOG
CADILLAC       CLEAR     44  44  99 CALM      30.18S
CHARLEVOIX     CLEAR     55  47  74 CALM      30.20R
FRANKFORT      CLEAR     51  47  88 CALM      30.18R
GAYLORD        CLEAR     51  43  74 CALM      30.17S
GRAYLING       CLEAR     46  46 100 CALM      30.19R FOG
HARBOR SPRINGS CLEAR     48  45  87 CALM      30.17S
HOUGHTON LAKE  CLEAR     46  45  96 CALM      30.19R
MANISTEE       CLEAR     52  46  82 CALM      30.18S
OSCODA         CLEAR     49  46  91 W5        30.16R
PELLSTON       CLEAR     42  41  96 SW3       30.17F
TRAVERSE CITY  CLEAR     53  48  83 CALM      30.17R
$$
MIZ007>008-015-280600-
EASTERN UPPER MICHIGAN

CITY           SKY/WX    TMP DP  RH WIND       PRES   REMARKS
KINROSS        CLEAR     46  46 100 CALM      30.16S
MACKINAC ISLAN CLEAR     50  45  82 NW7       30.16F
NEWBERRY       CLEAR     41  40  95 SW3       30.16S
S. S. MARIE    CLEAR     52  48  86 W5        30.15S
$$
MIZ004>006-011>014-085-280600-
CENTRAL UPPER MICHIGAN

CITY           SKY/WX    TMP DP  RH WIND       PRES   REMARKS
MANISTIQUE     CLEAR     42  41  95 CALM      30.18R
ESCANABA       CLOUDY    54  48  82 CALM      30.18R
MENOMINEE      CLOUDY    63  55  77 S8        30.16R
SAWYER-GWINN   MOCLDY    47  44  89 CALM      30.19R
$$
MIZ001>003-009>011-084-280600-
WESTERN UPPER MICHIGAN

CITY           SKY/WX    TMP DP  RH WIND       PRES   REMARKS
IRON MOUNTAIN  MOCLDY    50  46  86 CALM      30.18R
HOUGHTON       CLEAR     48  43  82 NW5       30.15F
COPPER HARBOR    N/A     54  43  66 W5        30.15S
$$

ABBREVIATIONS USED IN REMARKS
   TC - TEMPERATURE IN CELSIUS
  WCI - WIND CHILL INDEX
   HX - HEAT INDEX
  VSB - VISIBILITY



USA.gov is the U.S. government's official web portal to all federal, state and local government web resources and services.